owner,sensor,date,latitude,longitude,vertical_datum,sea_water_temperature,qcFlag
Chevron,ioos:station:wmo:42372:2,2020-06-11T20:22:00Z,27.7790,-90.5190,0.1,26.1,11111222
Chevron,ioos:station:wmo:42372:2,2020-06-11T20:32:00Z,27.7790,-90.5190,0.1,26.1,11111222
Chevron,ioos:station:wmo:42372:2,2020-06-11T20:42:00Z,27.7790,-90.5190,0.1,26.2,11111222
Chevron,ioos:station:wmo:42372:2,2020-06-11T20:52:00Z,27.7790,-90.5190,3.4,26.6,11111222
Chevron,ioos:station:wmo:42372:2,2020-06-11T23:11:00Z,27.7790,-90.5190,9.5,27.5,11111222
Chevron,ioos:station:wmo:42372:2,2020-06-11T23:21:00Z,27.7790,-90.5190,9.5,27.5,11111222
Chevron,ioos:station:wmo:42372:2,2020-06-11T23:31:00Z,27.7790,-90.5190,9.6,27.5,11111222
Chevron,ioos:station:wmo:42372:2,2020-06-11T23:41:00Z,27.7790,-90.5190,9.5,27.4,11111222
Chevron,ioos:station:wmo:42372:2,2020-06-11T23:51:00Z,27.7790,-90.5190,9.6,27.4,11111222
Chevron,ioos:station:wmo:42372:2,2020-06-12T00:01:00Z,27.7790,-90.5190,9.6,27.4,11111222
Chevron,ioos:station:wmo:42372:2,2020-06-12T00:11:00Z,27.7790,-90.5190,9.5,27.4,11111222
Chevron,ioos:station:wmo:42372:2,2020-06-12T00:21:00Z,27.7790,-90.5190,9.6,27.4,11111222
Chevron,ioos:station:wmo:42372:2,2020-06-12T00:31:00Z,27.7790,-90.5190,9.4,27.4,11111222
Chevron,ioos:station:wmo:42372:2,2020-06-12T00:41:00Z,27.7790,-90.5190,9.5,27.4,11111222
Chevron,ioos:station:wmo:42372:2,2020-06-12T00:51:00Z,27.7790,-90.5190,9.5,27.4,11111222
Chevron,ioos:station:wmo:42372:2,2020-06-12T01:01:00Z,27.7790,-90.5190,9.6,27.4,11111222
Chevron,ioos:station:wmo:42372:2,2020-06-12T01:11:00Z,27.7790,-90.5190,9.5,27.3,11111222
Chevron,ioos:station:wmo:42372:2,2020-06-12T01:21:00Z,27.7790,-90.5190,9.5,27.3,11111222
Chevron,ioos:station:wmo:42372:2,2020-06-12T01:31:00Z,27.7790,-90.5190,9.5,27.3,11111222
Chevron,ioos:station:wmo:42372:2,2020-06-12T01:41:00Z,27.7790,-90.5190,9.5,27.3,11111222
Chevron,ioos:station:wmo:42372:2,2020-06-12T01:51:00Z,27.7790,-90.5190,9.5,27.3,11111222
Chevron,ioos:station:wmo:42372:2,2020-06-12T02:01:00Z,27.7790,-90.5190,9.5,27.3,11111222
Chevron,ioos:station:wmo:42372:2,2020-06-12T02:11:00Z,27.7790,-90.5190,9.5,27.3,11111222
Chevron,ioos:station:wmo:42372:2,2020-06-12T02:21:00Z,27.7790,-90.5190,9.4,27.3,11111222
Chevron,ioos:station:wmo:42372:2,2020-06-12T02:31:00Z,27.7790,-90.5190,9.5,27.3,11111222
Chevron,ioos:station:wmo:42372:2,2020-06-12T02:41:00Z,27.7790,-90.5190,9.4,27.3,11111222
Chevron,ioos:station:wmo:42372:2,2020-06-12T02:51:00Z,27.7790,-90.5190,9.4,27.3,11111222
Chevron,ioos:station:wmo:42372:2,2020-06-12T03:01:00Z,27.7790,-90.5190,9.4,27.2,11111222
Chevron,ioos:station:wmo:42372:2,2020-06-12T03:11:00Z,27.7790,-90.5190,9.5,27.2,11111222
Chevron,ioos:station:wmo:42372:2,2020-06-12T03:21:00Z,27.7790,-90.5190,9.5,27.2,11111222
Chevron,ioos:station:wmo:42372:2,2020-06-12T03:31:00Z,27.7790,-90.5190,9.5,27.2,11111222
Chevron,ioos:station:wmo:42372:2,2020-06-12T03:41:00Z,27.7790,-90.5190,9.5,27.1,11111222
Chevron,ioos:station:wmo:42372:2,2020-06-12T03:51:00Z,27.7790,-90.5190,9.5,27.1,11111222
Chevron,ioos:station:wmo:42372:2,2020-06-12T04:01:00Z,27.7790,-90.5190,9.5,27.1,11111222
Chevron,ioos:station:wmo:42372:2,2020-06-12T04:11:00Z,27.7790,-90.5190,9.5,27.1,11111222
Chevron,ioos:station:wmo:42372:2,2020-06-12T04:21:00Z,27.7790,-90.5190,9.6,27.1,11111222
Chevron,ioos:station:wmo:42372:2,2020-06-12T04:31:00Z,27.7790,-90.5190,9.5,27.2,11111222
Chevron,ioos:station:wmo:42372:2,2020-06-12T04:41:00Z,27.7790,-90.5190,9.5,27.1,11111222
Chevron,ioos:station:wmo:42372:2,2020-06-12T04:51:00Z,27.7790,-90.5190,9.5,27.1,11111222
Chevron,ioos:station:wmo:42372:2,2020-06-12T05:01:00Z,27.7790,-90.5190,9.5,27.1,11111222
Chevron,ioos:station:wmo:42372:2,2020-06-12T05:11:00Z,27.7790,-90.5190,9.4,27.1,11111222
Chevron,ioos:station:wmo:42372:2,2020-06-12T05:21:00Z,27.7790,-90.5190,9.5,27.1,11111222
Chevron,ioos:station:wmo:42372:2,2020-06-12T05:31:00Z,27.7790,-90.5190,9.3,27.1,11111222
Chevron,ioos:station:wmo:42372:2,2020-06-12T05:41:00Z,27.7790,-90.5190,9.5,27.1,11111222
Chevron,ioos:station:wmo:42372:2,2020-06-12T05:51:00Z,27.7790,-90.5190,9.4,27.1,11111222
Chevron,ioos:station:wmo:42372:2,2020-06-12T06:01:00Z,27.7790,-90.5190,9.5,27.1,11111222
Chevron,ioos:station:wmo:42372:2,2020-06-12T06:11:00Z,27.7790,-90.5190,9.4,27.1,11111222
Chevron,ioos:station:wmo:42372:2,2020-06-12T06:21:00Z,27.7790,-90.5190,9.5,27.1,11111222
Chevron,ioos:station:wmo:42372:2,2020-06-12T06:31:00Z,27.7790,-90.5190,9.5,27.1,11111222
Chevron,ioos:station:wmo:42372:2,2020-06-12T06:41:00Z,27.7790,-90.5190,9.5,27.1,11111222
Chevron,ioos:station:wmo:42372:2,2020-06-12T06:51:00Z,27.7790,-90.5190,9.5,27.1,11111222
Chevron,ioos:station:wmo:42372:2,2020-06-12T07:01:00Z,27.7790,-90.5190,9.5,27.2,11111222
Chevron,ioos:station:wmo:42372:2,2020-06-12T07:11:00Z,27.7790,-90.5190,9.5,27.2,11111222
Chevron,ioos:station:wmo:42372:2,2020-06-12T07:21:00Z,27.7790,-90.5190,9.5,27.2,11111222
Chevron,ioos:station:wmo:42372:2,2020-06-12T07:31:00Z,27.7790,-90.5190,9.4,27.2,11111222
Chevron,ioos:station:wmo:42372:2,2020-06-12T07:41:00Z,27.7790,-90.5190,9.5,27.2,11111222
Chevron,ioos:station:wmo:42372:2,2020-06-12T07:51:00Z,27.7790,-90.5190,9.5,27.2,11111222
Chevron,ioos:station:wmo:42372:2,2020-06-12T08:01:00Z,27.7790,-90.5190,9.4,27.2,11111222
Chevron,ioos:station:wmo:42372:2,2020-06-12T08:11:00Z,27.7790,-90.5190,9.4,27.2,11111222
Chevron,ioos:station:wmo:42372:2,2020-06-12T08:21:00Z,27.7790,-90.5190,9.6,27.2,11111222
Chevron,ioos:station:wmo:42372:2,2020-06-12T08:31:00Z,27.7790,-90.5190,9.5,27.2,11111222
Chevron,ioos:station:wmo:42372:2,2020-06-12T08:41:00Z,27.7790,-90.5190,9.4,27.2,11111222
Chevron,ioos:station:wmo:42372:2,2020-06-12T08:51:00Z,27.7790,-90.5190,9.5,27.2,11111222
Chevron,ioos:station:wmo:42372:2,2020-06-12T09:01:00Z,27.7790,-90.5190,9.5,27.2,11111222
Chevron,ioos:station:wmo:42372:2,2020-06-12T09:11:00Z,27.7790,-90.5190,9.5,27.2,11111222
Chevron,ioos:station:wmo:42372:2,2020-06-12T09:21:00Z,27.7790,-90.5190,9.5,27.2,11111222
Chevron,ioos:station:wmo:42372:2,2020-06-12T09:31:00Z,27.7790,-90.5190,9.5,27.2,11111222
Chevron,ioos:station:wmo:42372:2,2020-06-12T09:41:00Z,27.7790,-90.5190,9.5,27.2,11111222
Chevron,ioos:station:wmo:42372:2,2020-06-12T09:51:00Z,27.7790,-90.5190,9.5,27.3,11111222
Chevron,ioos:station:wmo:42372:2,2020-06-12T10:01:00Z,27.7790,-90.5190,9.5,27.3,11111222
Chevron,ioos:station:wmo:42372:2,2020-06-12T10:11:00Z,27.7790,-90.5190,9.6,27.3,11111222
Chevron,ioos:station:wmo:42372:2,2020-06-12T10:21:00Z,27.7790,-90.5190,9.5,27.3,11111222
Chevron,ioos:station:wmo:42372:2,2020-06-12T10:31:00Z,27.7790,-90.5190,9.6,27.3,11111222
Chevron,ioos:station:wmo:42372:2,2020-06-12T10:41:00Z,27.7790,-90.5190,9.5,27.3,11111222
Chevron,ioos:station:wmo:42372:2,2020-06-12T10:51:00Z,27.7790,-90.5190,9.6,27.3,11111222
Chevron,ioos:station:wmo:42372:2,2020-06-12T11:01:00Z,27.7790,-90.5190,9.6,27.3,11111222
Chevron,ioos:station:wmo:42372:2,2020-06-12T11:11:00Z,27.7790,-90.5190,9.6,27.3,11111222
Chevron,ioos:station:wmo:42372:2,2020-06-12T11:21:00Z,27.7790,-90.5190,9.6,27.3,11111222
Chevron,ioos:station:wmo:42372:2,2020-06-12T11:31:00Z,27.7790,-90.5190,9.6,27.3,11111222
Chevron,ioos:station:wmo:42372:2,2020-06-12T11:41:00Z,27.7790,-90.5190,9.5,27.2,11111222
Chevron,ioos:station:wmo:42372:2,2020-06-12T11:51:00Z,27.7790,-90.5190,9.7,27.2,11111222
Chevron,ioos:station:wmo:42372:2,2020-06-12T12:01:00Z,27.7790,-90.5190,9.6,27.2,11111222
Chevron,ioos:station:wmo:42372:2,2020-06-12T12:11:00Z,27.7790,-90.5190,9.5,27.1,11111222
Chevron,ioos:station:wmo:42372:2,2020-06-12T12:21:00Z,27.7790,-90.5190,9.5,27.2,11111222
Chevron,ioos:station:wmo:42372:2,2020-06-12T12:31:00Z,27.7790,-90.5190,9.6,27.1,11111222
Chevron,ioos:station:wmo:42372:2,2020-06-12T12:41:00Z,27.7790,-90.5190,9.5,27.2,11111222
Chevron,ioos:station:wmo:42372:2,2020-06-12T12:51:00Z,27.7790,-90.5190,9.5,27.3,11111222
Chevron,ioos:station:wmo:42372:2,2020-06-12T13:01:00Z,27.7790,-90.5190,9.5,27.2,11111222
Chevron,ioos:station:wmo:42372:2,2020-06-12T13:11:00Z,27.7790,-90.5190,9.4,27.3,11111222
Chevron,ioos:station:wmo:42372:2,2020-06-12T13:21:00Z,27.7790,-90.5190,9.5,27.3,11111222
Chevron,ioos:station:wmo:42372:2,2020-06-12T13:31:00Z,27.7790,-90.5190,9.6,27.3,11111222
Chevron,ioos:station:wmo:42372:2,2020-06-12T13:41:00Z,27.7790,-90.5190,9.5,27.3,11111222
Chevron,ioos:station:wmo:42372:2,2020-06-12T13:51:00Z,27.7790,-90.5190,9.6,27.3,11111222
Chevron,ioos:station:wmo:42372:2,2020-06-12T14:01:00Z,27.7790,-90.5190,9.5,27.2,11111222
Chevron,ioos:station:wmo:42372:2,2020-06-12T14:11:00Z,27.7790,-90.5190,9.5,27.2,11111222
Chevron,ioos:station:wmo:42372:2,2020-06-12T14:21:00Z,27.7790,-90.5190,9.6,27.2,11111222
Chevron,ioos:station:wmo:42372:2,2020-06-12T14:31:00Z,27.7790,-90.5190,9.5,27.3,11111222
Chevron,ioos:station:wmo:42372:2,2020-06-12T14:41:00Z,27.7790,-90.5190,9.5,27.3,11111222
Chevron,ioos:station:wmo:42372:2,2020-06-12T14:52:00Z,27.7790,-90.5190,9.6,27.3,11111222
Chevron,ioos:station:wmo:42372:2,2020-06-12T15:02:00Z,27.7790,-90.5190,9.5,27.2,11111222
Chevron,ioos:station:wmo:42372:2,2020-06-12T15:12:00Z,27.7790,-90.5190,9.5,27.2,11111222
Chevron,ioos:station:wmo:42372:2,2020-06-12T15:22:00Z,27.7790,-90.5190,9.5,27.2,11111222
Chevron,ioos:station:wmo:42372:2,2020-06-12T15:32:00Z,27.7790,-90.5190,9.5,27.3,11111222
Chevron,ioos:station:wmo:42372:2,2020-06-12T15:42:00Z,27.7790,-90.5190,9.5,27.2,11111222
Chevron,ioos:station:wmo:42372:2,2020-06-12T15:52:00Z,27.7790,-90.5190,9.5,27.3,11111222
Chevron,ioos:station:wmo:42372:2,2020-06-12T16:02:00Z,27.7790,-90.5190,9.6,27.3,11111222
Chevron,ioos:station:wmo:42372:2,2020-06-12T16:12:00Z,27.7790,-90.5190,9.5,27.3,11111222
Chevron,ioos:station:wmo:42372:2,2020-06-12T16:22:00Z,27.7790,-90.5190,9.6,27.3,11111222
Chevron,ioos:station:wmo:42372:2,2020-06-12T16:32:00Z,27.7790,-90.5190,9.6,27.3,11111222
Chevron,ioos:station:wmo:42372:2,2020-06-12T16:42:00Z,27.7790,-90.5190,9.5,27.3,11111222
Chevron,ioos:station:wmo:42372:2,2020-06-12T16:52:00Z,27.7790,-90.5190,9.6,27.3,11111222
Chevron,ioos:station:wmo:42372:2,2020-06-12T17:02:00Z,27.7790,-90.5190,9.6,27.4,11111222
Chevron,ioos:station:wmo:42372:2,2020-06-12T17:12:00Z,27.7790,-90.5190,9.5,27.3,11111222
Chevron,ioos:station:wmo:42372:2,2020-06-12T17:22:00Z,27.7790,-90.5190,9.6,27.3,11111222
Chevron,ioos:station:wmo:42372:2,2020-06-12T17:32:00Z,27.7790,-90.5190,9.5,27.3,11111222
Chevron,ioos:station:wmo:42372:2,2020-06-12T17:42:00Z,27.7790,-90.5190,9.5,27.3,11111222
Chevron,ioos:station:wmo:42372:2,2020-06-12T17:52:00Z,27.7790,-90.5190,9.5,27.3,11111222
Chevron,ioos:station:wmo:42372:2,2020-06-12T18:02:00Z,27.7790,-90.5190,9.6,27.3,11111222
Chevron,ioos:station:wmo:42372:2,2020-06-12T18:12:00Z,27.7790,-90.5190,9.6,27.3,11111222
Chevron,ioos:station:wmo:42372:2,2020-06-12T18:22:00Z,27.7790,-90.5190,9.5,27.4,11111222
Chevron,ioos:station:wmo:42372:2,2020-06-12T18:32:00Z,27.7790,-90.5190,9.5,27.3,11111222
Chevron,ioos:station:wmo:42372:2,2020-06-12T18:42:00Z,27.7790,-90.5190,9.5,27.3,11111222
Chevron,ioos:station:wmo:42372:2,2020-06-12T18:52:00Z,27.7790,-90.5190,9.4,27.4,11111222
Chevron,ioos:station:wmo:42372:2,2020-06-12T19:02:00Z,27.7790,-90.5190,9.5,27.4,11111222
Chevron,ioos:station:wmo:42372:2,2020-06-12T19:12:00Z,27.7790,-90.5190,9.5,27.4,11111222
Chevron,ioos:station:wmo:42372:2,2020-06-12T19:22:00Z,27.7790,-90.5190,9.5,27.4,11111222
Chevron,ioos:station:wmo:42372:2,2020-06-12T19:32:00Z,27.7790,-90.5190,9.5,27.4,11111222
Chevron,ioos:station:wmo:42372:2,2020-06-12T19:42:00Z,27.7790,-90.5190,9.4,27.4,11111222
Chevron,ioos:station:wmo:42372:2,2020-06-12T19:52:00Z,27.7790,-90.5190,9.5,27.4,11111222
Chevron,ioos:station:wmo:42372:2,2020-06-12T20:02:00Z,27.7790,-90.5190,9.5,27.4,11111222
Chevron,ioos:station:wmo:42372:2,2020-06-12T20:12:00Z,27.7790,-90.5190,9.5,27.4,11111222
Chevron,ioos:station:wmo:42372:2,2020-06-12T20:22:00Z,27.7790,-90.5190,9.5,27.4,11111222
Chevron,ioos:station:wmo:42372:2,2020-06-12T20:32:00Z,27.7790,-90.5190,9.4,27.4,11111222
Chevron,ioos:station:wmo:42372:2,2020-06-12T20:42:00Z,27.7790,-90.5190,9.4,27.4,11111222
Chevron,ioos:station:wmo:42372:2,2020-06-12T20:52:00Z,27.7790,-90.5190,9.4,27.4,11111222
Chevron,ioos:station:wmo:42372:2,2020-06-12T21:02:00Z,27.7790,-90.5190,9.5,27.4,11111222
Chevron,ioos:station:wmo:42372:2,2020-06-12T21:12:00Z,27.7790,-90.5190,9.5,27.4,11111222
Chevron,ioos:station:wmo:42372:2,2020-06-12T21:22:00Z,27.7790,-90.5190,9.5,27.5,11111222
Chevron,ioos:station:wmo:42372:2,2020-06-12T21:32:00Z,27.7790,-90.5190,9.4,27.5,11111222
Chevron,ioos:station:wmo:42372:2,2020-06-12T21:42:00Z,27.7790,-90.5190,9.5,27.5,11111222
Chevron,ioos:station:wmo:42372:2,2020-06-12T21:52:00Z,27.7790,-90.5190,9.4,27.5,11111222
Chevron,ioos:station:wmo:42372:2,2020-06-12T22:02:00Z,27.7790,-90.5190,9.5,27.4,11111222
Chevron,ioos:station:wmo:42372:2,2020-06-12T22:12:00Z,27.7790,-90.5190,9.5,27.4,11111222
Chevron,ioos:station:wmo:42372:2,2020-06-12T22:22:00Z,27.7790,-90.5190,9.4,27.4,11111222
Chevron,ioos:station:wmo:42372:2,2020-06-12T22:32:00Z,27.7790,-90.5190,9.5,27.4,11111222
Chevron,ioos:station:wmo:42372:2,2020-06-12T22:42:00Z,27.7790,-90.5190,9.4,27.4,11111222
Chevron,ioos:station:wmo:42372:2,2020-06-12T22:52:00Z,27.7790,-90.5190,9.4,27.5,11111222
Chevron,ioos:station:wmo:42372:2,2020-06-12T23:02:00Z,27.7790,-90.5190,9.4,27.5,11111222
Chevron,ioos:station:wmo:42372:2,2020-06-12T23:12:00Z,27.7790,-90.5190,9.4,27.5,11111222
Chevron,ioos:station:wmo:42372:2,2020-06-12T23:22:00Z,27.7790,-90.5190,9.4,27.5,11111222
Chevron,ioos:station:wmo:42372:2,2020-06-12T23:32:00Z,27.7790,-90.5190,9.5,27.5,11111222
Chevron,ioos:station:wmo:42372:2,2020-06-12T23:42:00Z,27.7790,-90.5190,9.4,27.5,11111222
Chevron,ioos:station:wmo:42372:2,2020-06-12T23:52:00Z,27.7790,-90.5190,9.4,27.5,11111222
Chevron,ioos:station:wmo:42372:2,2020-06-13T00:02:00Z,27.7790,-90.5190,9.4,27.4,11111222
Chevron,ioos:station:wmo:42372:2,2020-06-13T00:12:00Z,27.7790,-90.5190,9.4,27.4,11111222
Chevron,ioos:station:wmo:42372:2,2020-06-13T00:22:00Z,27.7790,-90.5190,9.4,27.4,11111222
Chevron,ioos:station:wmo:42372:2,2020-06-13T00:32:00Z,27.7790,-90.5190,9.4,27.4,11111222
Chevron,ioos:station:wmo:42372:2,2020-06-13T00:42:00Z,27.7790,-90.5190,9.5,27.4,11111222
Chevron,ioos:station:wmo:42372:2,2020-06-13T00:52:00Z,27.7790,-90.5190,9.4,27.4,11111222
Chevron,ioos:station:wmo:42372:2,2020-06-13T01:02:00Z,27.7790,-90.5190,9.4,27.4,11111222
Chevron,ioos:station:wmo:42372:2,2020-06-13T01:12:00Z,27.7790,-90.5190,9.5,27.4,11111222
Chevron,ioos:station:wmo:42372:2,2020-06-13T01:22:00Z,27.7790,-90.5190,9.4,27.4,11111222
Chevron,ioos:station:wmo:42372:2,2020-06-13T01:32:00Z,27.7790,-90.5190,9.4,27.4,11111222
Chevron,ioos:station:wmo:42372:2,2020-06-13T01:42:00Z,27.7790,-90.5190,9.4,27.4,11111222
Chevron,ioos:station:wmo:42372:2,2020-06-13T01:52:00Z,27.7790,-90.5190,9.4,27.4,11111222
Chevron,ioos:station:wmo:42372:2,2020-06-13T02:02:00Z,27.7790,-90.5190,9.3,27.4,11111222
Chevron,ioos:station:wmo:42372:2,2020-06-13T02:12:00Z,27.7790,-90.5190,9.4,27.4,11111222
Chevron,ioos:station:wmo:42372:2,2020-06-13T02:22:00Z,27.7790,-90.5190,9.4,27.4,11111222
Chevron,ioos:station:wmo:42372:2,2020-06-13T02:32:00Z,27.7790,-90.5190,9.4,27.4,11111222
Chevron,ioos:station:wmo:42372:2,2020-06-13T02:42:00Z,27.7790,-90.5190,9.4,27.4,11111222
Chevron,ioos:station:wmo:42372:2,2020-06-13T02:52:00Z,27.7790,-90.5190,9.4,27.4,11111222
Chevron,ioos:station:wmo:42372:2,2020-06-13T03:02:00Z,27.7790,-90.5190,9.5,27.4,11111222
Chevron,ioos:station:wmo:42372:2,2020-06-13T03:12:00Z,27.7790,-90.5190,9.4,27.4,11111222
Chevron,ioos:station:wmo:42372:2,2020-06-13T03:22:00Z,27.7790,-90.5190,9.4,27.3,11111222
Chevron,ioos:station:wmo:42372:2,2020-06-13T03:32:00Z,27.7790,-90.5190,9.4,27.3,11111222
Chevron,ioos:station:wmo:42372:2,2020-06-13T03:42:00Z,27.7790,-90.5190,9.4,27.3,11111222
Chevron,ioos:station:wmo:42372:2,2020-06-13T03:52:00Z,27.7790,-90.5190,9.4,27.3,11111222
Chevron,ioos:station:wmo:42372:2,2020-06-13T04:02:00Z,27.7790,-90.5190,9.4,27.2,11111222
Chevron,ioos:station:wmo:42372:2,2020-06-13T04:12:00Z,27.7790,-90.5190,9.3,27.2,11111222
Chevron,ioos:station:wmo:42372:2,2020-06-13T04:22:00Z,27.7790,-90.5190,9.4,27.1,11111222
Chevron,ioos:station:wmo:42372:2,2020-06-13T04:32:00Z,27.7790,-90.5190,9.4,27.1,11111222
Chevron,ioos:station:wmo:42372:2,2020-06-13T04:42:00Z,27.7790,-90.5190,9.4,27.1,11111222
Chevron,ioos:station:wmo:42372:2,2020-06-13T04:52:00Z,27.7790,-90.5190,9.4,27.0,11111222
Chevron,ioos:station:wmo:42372:2,2020-06-13T05:02:00Z,27.7790,-90.5190,9.4,27.0,11111222
Chevron,ioos:station:wmo:42372:2,2020-06-13T05:12:00Z,27.7790,-90.5190,9.4,27.1,11111222
Chevron,ioos:station:wmo:42372:2,2020-06-13T05:22:00Z,27.7790,-90.5190,9.5,27.0,11111222
Chevron,ioos:station:wmo:42372:2,2020-06-13T05:32:00Z,27.7790,-90.5190,9.4,27.1,11111222
Chevron,ioos:station:wmo:42372:2,2020-06-13T05:42:00Z,27.7790,-90.5190,9.4,27.1,11111222
Chevron,ioos:station:wmo:42372:2,2020-06-13T05:52:00Z,27.7790,-90.5190,9.4,27.1,11111222
Chevron,ioos:station:wmo:42372:2,2020-06-13T06:02:00Z,27.7790,-90.5190,9.3,27.1,11111222
Chevron,ioos:station:wmo:42372:2,2020-06-13T06:12:00Z,27.7790,-90.5190,9.5,27.1,11111222
Chevron,ioos:station:wmo:42372:2,2020-06-13T06:22:00Z,27.7790,-90.5190,9.4,27.1,11111222
Chevron,ioos:station:wmo:42372:2,2020-06-13T06:32:00Z,27.7790,-90.5190,9.5,27.2,11111222
Chevron,ioos:station:wmo:42372:2,2020-06-13T06:42:00Z,27.7790,-90.5190,9.4,27.2,11111222
Chevron,ioos:station:wmo:42372:2,2020-06-13T06:52:00Z,27.7790,-90.5190,9.4,27.1,11111222
Chevron,ioos:station:wmo:42372:2,2020-06-13T07:02:00Z,27.7790,-90.5190,9.4,27.2,11111222
Chevron,ioos:station:wmo:42372:2,2020-06-13T07:12:00Z,27.7790,-90.5190,9.4,27.1,11111222
Chevron,ioos:station:wmo:42372:2,2020-06-13T07:22:00Z,27.7790,-90.5190,9.4,27.2,11111222
Chevron,ioos:station:wmo:42372:2,2020-06-13T07:32:00Z,27.7790,-90.5190,9.5,27.2,11111222
Chevron,ioos:station:wmo:42372:2,2020-06-13T07:42:00Z,27.7790,-90.5190,9.4,27.2,11111222
Chevron,ioos:station:wmo:42372:2,2020-06-13T07:52:00Z,27.7790,-90.5190,9.4,27.1,11111222
Chevron,ioos:station:wmo:42372:2,2020-06-13T08:02:00Z,27.7790,-90.5190,9.5,27.2,11111222
Chevron,ioos:station:wmo:42372:2,2020-06-13T08:12:00Z,27.7790,-90.5190,9.4,27.2,11111222
Chevron,ioos:station:wmo:42372:2,2020-06-13T08:23:00Z,27.7790,-90.5190,9.4,27.1,11111222
Chevron,ioos:station:wmo:42372:2,2020-06-13T08:33:00Z,27.7790,-90.5190,9.4,27.2,11111222
Chevron,ioos:station:wmo:42372:2,2020-06-13T08:43:00Z,27.7790,-90.5190,9.4,27.1,11111222
Chevron,ioos:station:wmo:42372:2,2020-06-13T08:53:00Z,27.7790,-90.5190,9.4,27.2,11111222
Chevron,ioos:station:wmo:42372:2,2020-06-13T09:03:00Z,27.7790,-90.5190,9.4,27.2,11111222
Chevron,ioos:station:wmo:42372:2,2020-06-13T09:13:00Z,27.7790,-90.5190,9.4,27.2,11111222
Chevron,ioos:station:wmo:42372:2,2020-06-13T09:23:00Z,27.7790,-90.5190,9.5,27.1,11111222
Chevron,ioos:station:wmo:42372:2,2020-06-13T09:33:00Z,27.7790,-90.5190,9.4,27.2,11111222
Chevron,ioos:station:wmo:42372:2,2020-06-13T09:43:00Z,27.7790,-90.5190,9.5,27.2,11111222
Chevron,ioos:station:wmo:42372:2,2020-06-13T09:53:00Z,27.7790,-90.5190,9.5,27.2,11111222
Chevron,ioos:station:wmo:42372:2,2020-06-13T10:03:00Z,27.7790,-90.5190,9.5,27.1,11111222
Chevron,ioos:station:wmo:42372:2,2020-06-13T10:13:00Z,27.7790,-90.5190,9.4,27.2,11111222
Chevron,ioos:station:wmo:42372:2,2020-06-13T10:23:00Z,27.7790,-90.5190,9.5,27.2,11111222
Chevron,ioos:station:wmo:42372:2,2020-06-13T10:33:00Z,27.7790,-90.5190,9.5,27.2,11111222
Chevron,ioos:station:wmo:42372:2,2020-06-13T10:43:00Z,27.7790,-90.5190,9.5,27.1,11111222
Chevron,ioos:station:wmo:42372:2,2020-06-13T10:53:00Z,27.7790,-90.5190,9.5,27.2,11111222
Chevron,ioos:station:wmo:42372:2,2020-06-13T11:03:00Z,27.7790,-90.5190,9.5,27.2,11111222
Chevron,ioos:station:wmo:42372:2,2020-06-13T11:13:00Z,27.7790,-90.5190,9.5,27.1,11111222
Chevron,ioos:station:wmo:42372:2,2020-06-13T11:23:00Z,27.7790,-90.5190,9.5,27.1,11111222
Chevron,ioos:station:wmo:42372:2,2020-06-13T11:33:00Z,27.7790,-90.5190,9.5,27.1,11111222
Chevron,ioos:station:wmo:42372:2,2020-06-13T11:43:00Z,27.7790,-90.5190,9.5,27.1,11111222
Chevron,ioos:station:wmo:42372:2,2020-06-13T11:53:00Z,27.7790,-90.5190,9.5,27.1,11111222
Chevron,ioos:station:wmo:42372:2,2020-06-13T12:03:00Z,27.7790,-90.5190,9.5,27.1,11111222
Chevron,ioos:station:wmo:42372:2,2020-06-13T12:13:00Z,27.7790,-90.5190,9.5,27.1,11111222
Chevron,ioos:station:wmo:42372:2,2020-06-13T12:23:00Z,27.7790,-90.5190,9.5,27.1,11111222
Chevron,ioos:station:wmo:42372:2,2020-06-13T12:33:00Z,27.7790,-90.5190,9.5,27.1,11111222
Chevron,ioos:station:wmo:42372:2,2020-06-13T12:43:00Z,27.7790,-90.5190,9.4,27.1,11111222
Chevron,ioos:station:wmo:42372:2,2020-06-13T12:53:00Z,27.7790,-90.5190,9.5,27.1,11111222
Chevron,ioos:station:wmo:42372:2,2020-06-13T13:03:00Z,27.7790,-90.5190,9.5,27.1,11111222
Chevron,ioos:station:wmo:42372:2,2020-06-13T13:13:00Z,27.7790,-90.5190,9.5,27.1,11111222
Chevron,ioos:station:wmo:42372:2,2020-06-13T13:23:00Z,27.7790,-90.5190,9.5,27.1,11111222
Chevron,ioos:station:wmo:42372:2,2020-06-13T13:33:00Z,27.7790,-90.5190,9.5,27.1,11111222
Chevron,ioos:station:wmo:42372:2,2020-06-13T13:43:00Z,27.7790,-90.5190,9.5,27.1,11111222
Chevron,ioos:station:wmo:42372:2,2020-06-13T13:53:00Z,27.7790,-90.5190,9.5,27.1,11111222
Chevron,ioos:station:wmo:42372:2,2020-06-13T14:03:00Z,27.7790,-90.5190,9.6,27.2,11111222
Chevron,ioos:station:wmo:42372:2,2020-06-13T14:13:00Z,27.7790,-90.5190,9.5,27.2,11111222
Chevron,ioos:station:wmo:42372:2,2020-06-13T14:23:00Z,27.7790,-90.5190,9.4,27.2,11111222
Chevron,ioos:station:wmo:42372:2,2020-06-13T14:33:00Z,27.7790,-90.5190,9.4,27.2,11111222
Chevron,ioos:station:wmo:42372:2,2020-06-13T14:43:00Z,27.7790,-90.5190,9.5,27.2,11111222
Chevron,ioos:station:wmo:42372:2,2020-06-13T14:53:00Z,27.7790,-90.5190,9.5,27.2,11111222
Chevron,ioos:station:wmo:42372:2,2020-06-13T15:03:00Z,27.7790,-90.5190,9.5,27.2,11111222
Chevron,ioos:station:wmo:42372:2,2020-06-13T15:13:00Z,27.7790,-90.5190,9.5,27.2,11111222
Chevron,ioos:station:wmo:42372:2,2020-06-13T15:23:00Z,27.7790,-90.5190,9.5,27.2,11111222
Chevron,ioos:station:wmo:42372:2,2020-06-13T15:33:00Z,27.7790,-90.5190,9.5,27.2,11111222
Chevron,ioos:station:wmo:42372:2,2020-06-13T15:43:00Z,27.7790,-90.5190,9.5,27.2,11111222
Chevron,ioos:station:wmo:42372:2,2020-06-13T15:53:00Z,27.7790,-90.5190,9.4,27.2,11111222
Chevron,ioos:station:wmo:42372:2,2020-06-13T16:03:00Z,27.7790,-90.5190,9.4,27.2,11111222
Chevron,ioos:station:wmo:42372:2,2020-06-13T16:13:00Z,27.7790,-90.5190,9.5,27.2,11111222
Chevron,ioos:station:wmo:42372:2,2020-06-13T16:23:00Z,27.7790,-90.5190,9.5,27.2,11111222
Chevron,ioos:station:wmo:42372:2,2020-06-13T16:33:00Z,27.7790,-90.5190,9.5,27.2,11111222
Chevron,ioos:station:wmo:42372:2,2020-06-13T16:43:00Z,27.7790,-90.5190,9.5,27.2,11111222
Chevron,ioos:station:wmo:42372:2,2020-06-13T16:53:00Z,27.7790,-90.5190,9.4,27.2,11111222
Chevron,ioos:station:wmo:42372:2,2020-06-13T17:03:00Z,27.7790,-90.5190,9.5,27.2,11111222
Chevron,ioos:station:wmo:42372:2,2020-06-13T17:13:00Z,27.7790,-90.5190,9.5,27.3,11111222
Chevron,ioos:station:wmo:42372:2,2020-06-13T17:23:00Z,27.7790,-90.5190,9.5,27.3,11111222
Chevron,ioos:station:wmo:42372:2,2020-06-13T17:33:00Z,27.7790,-90.5190,9.5,27.2,11111222
Chevron,ioos:station:wmo:42372:2,2020-06-13T17:43:00Z,27.7790,-90.5190,9.5,27.3,11111222
Chevron,ioos:station:wmo:42372:2,2020-06-13T17:53:00Z,27.7790,-90.5190,9.5,27.2,11111222
Chevron,ioos:station:wmo:42372:2,2020-06-13T18:03:00Z,27.7790,-90.5190,9.5,27.3,11111222
Chevron,ioos:station:wmo:42372:2,2020-06-13T18:13:00Z,27.7790,-90.5190,9.4,27.3,11111222
Chevron,ioos:station:wmo:42372:2,2020-06-13T18:23:00Z,27.7790,-90.5190,9.4,27.3,11111222
Chevron,ioos:station:wmo:42372:2,2020-06-13T18:33:00Z,27.7790,-90.5190,9.5,27.3,11111222